sat.trackr.live / text

‹ back to catalog

PCSAT (NO-44)

NORAD 26931 · 2001-043C

PAYLOAD ACTIVE UNKNOWN

§ Identity

Operator
Country
US
Launch date
2001-09-30
Launch site
KODAK
Launch vehicle
Mass (kg)
RCS (m²)
0.18

Purposes: comms

External: N2YO · Heavens-Above · Gunter

§ Orbital elements

Epoch: 2026-09-02T21:31:02.192160Z

Period
100.56 min
Inclination
67.0507°
Eccentricity
0.0005668
Mean motion
14.31980243 rev/d
Perigee alt
781.1 km
Apogee alt
789.2 km
Semi-major
7,163.3 km
B*
4.2131e-5
RAAN
43.2738°
Arg perigee
271.1600°
Mean anomaly
88.8852°
Rev number
30,157

§ Raw data

PCSAT (NO-44)1 26931U 01043C   26245.89655315  .00000030  00000+0  42131-4 0  99972 26931  67.0507  43.2738 0005668 271.1600  88.8852 14.31980243301577

JSON: /api/v1/satellites/26931 · /tle

For live sub-satellite position, see the globe view (requires WebGL).

§ Visibility from observer

Set your observer location to see the next 7 days of passes ≥ 10°. The values pass through the URL so the page stays shareable.

No JS? Fill the form by hand. The geolocation button needs JavaScript.

§ Radio — SatNOGS DB

ModeDescriptionDownlinkUplink
AFSK Mode V - R2 Backup APRS 1K2 144.390 MHz
AFSK Mode V/V APRS AFSK 145.825 MHz 145.825 MHz
AFSK PE0SAT - 1k2 AFSK APRS 145.827 MHz

3 transmitters · refreshed weekly from db.satnogs.org